Location: La Rousse
(44.3167°N, 6.6667°E)
Time: 04:47:02
(UTC+00:00)

Daily predictions for brighter satellites

Satellite Brightness Start Highest point End
(mag) Time Altitude Azimuth Time Altitude Azimuth Time Altitude Azimuth
CENTAUR R/B 4.3 03:11:58 25° NNE 03:11:58 25° NNE 03:14:53 10° NNE
ATLAS 3B R/B 4.4 03:36:39 10° SSE 03:41:54 27° ESE 03:47:19 10° ENE
Cosmos 2369 Rocket 3.9 03:51:56 22° NNE 03:51:56 22° NNE 03:53:53 10° NNE
CZ-2C R/B 4.1 03:52:01 10° SE 03:56:52 35° ENE 04:00:26 16° N
COSMO-SKYMED 1 4.4 03:55:25 10° SE 03:59:07 28° ENE 03:59:58 26° NE
Cosmos 2344 4.3 04:05:25 35° NNW 04:05:25 35° NNW 04:11:47 10° NNE
Cosmos 2279 Rocket 4.1 04:06:27 26° N 04:10:05 73° E 04:16:16 10° SSE
Envisat 4.0 04:08:20 10° NNE 04:13:12 45° E 04:18:04 10° S
SJ 16-02 2.8 04:13:25 10° SSE 04:17:26 36° ESE 04:21:27 10° NE
USA 215 4.1 04:12:25 10° E 04:18:25 41° NNE 04:20:33 32° NNW
Meteor 1-10 Rocket 4.4 04:17:47 27° N 04:20:48 66° ENE 04:26:20 10° SSE
Cosmos 1515 Rocket 4.5 04:22:56 32° NNE 04:24:27 46° ENE 04:28:37 10° SSE
SL-4 R/B 4.0 04:24:19 19° SSE 04:24:57 20° SE 04:27:37 10° E
Meteor 2-8 Rocket 4.4 04:25:11 12° N 04:30:55 84° E 04:37:01 10° S
ATLAS 5 CENTAUR R/B 1.3 04:41:25 78° ENE 04:41:25 78° ENE 04:45:27 10° NE
SKYMED 2 3.5 04:42:40 10° SSE 04:47:01 87° ENE 04:48:34 40° NNW
COSMOS 2487 3.6 04:47:50 33° NNE 04:48:38 38° ENE 04:51:46 10° SE
Cosmos 1354 Rocket 4.1 04:53:51 46° W 04:54:36 49° WNW 04:59:47 10° N
H-2A R/B 4.2 04:51:20 10° ESE 04:54:53 25° ENE 04:58:30 10° N
CZ-4B R/B 4.0 04:55:40 10° N 05:00:10 83° WNW 05:04:36 10° SSW
CENTAUR R/B 4.0 04:59:09 21° NNW 05:00:16 22° NNW 05:05:52 10° NNE
DELTA 2 R/B (1) 4.1 04:59:49 32° WSW 05:02:01 50° S 05:07:22 10° ESE
CZ-4C R/B 2.9 05:02:45 10° SSE 05:05:51 71° ENE 05:06:54 37° N
SL-19 R/B 4.5 05:01:08 10° S 05:06:29 48° WSW 05:09:38 24° NW
CZ-3 R/B 4.2 05:01:08 10° SW 05:10:01 19° S 05:14:39 10° SE
FALCON 9 DEB 4.3 05:14:23 23° N 05:14:38 23° NNE 05:17:01 10° ENE
BREEZE-M DEB (TANK) 4.3 05:06:52 23° WNW 05:14:53 75° SW 05:18:58 10° SE
FALCON 9 DEB 4.4 05:16:00 22° N 05:16:19 22° NNE 05:18:39 10° ENE
MOS 1-B Rocket 4.4 05:14:24 10° SSW 05:19:54 35° W 05:23:07 20° NW
Cosmos 1538 Rocket 3.9 05:16:45 13° NNW 05:21:23 84° WSW 05:26:33 10° SSE
Alouette 2 Rocket 3.1 05:20:03 14° NNW 05:23:07 88° E 05:26:54 10° SSE
Meteor 1-27 Rocket 3.8 05:17:53 10° NNW 05:23:30 61° W 05:29:11 10° S
Cosmos 2026 Rocket 4.5 05:17:36 10° S 05:23:51 65° E 05:30:02 10° NNE
SJ-7 4.4 05:22:01 10° NNE 05:26:13 88° ESE 05:30:19 10° SSW
ADEOS 3.5 05:22:31 10° NNE 05:27:46 79° WNW 05:32:58 10° SSW
Cosmos 2297 Rocket 3.0 05:24:37 10° NNW 05:30:10 51° ENE 05:35:39 10° SE
ATLAS 3B R/B 2.6 05:25:31 10° SW 05:32:01 66° NW 05:38:51 10° NNE
Cosmos 1607 3.9 05:26:35 14° NW 05:32:02 88° NE 05:38:11 10° SSE
Landsat 5 4.0 05:28:55 10° S 05:33:09 41° W 05:36:39 14° NNW
Cosmos 2369 Rocket 3.8 05:33:46 14° NW 05:33:46 14° NW 05:36:23 10° N
Cosmos 1340 Rocket 3.0 05:30:53 10° SSW 05:34:41 45° WNW 05:38:34 10° N
COSMO-SKYMED 1 3.4 05:31:27 10° SSW 05:35:13 29° W 05:37:10 20° NW
SL-27 R/B 4.2 05:36:25 17° WSW 05:36:25 17° WSW 05:38:10 10° SW
Cosmos 1777 Rocket 4.4 05:31:08 10° SW 05:36:00 39° WNW 05:40:56 10° N
CZ-2C R/B 3.3 05:32:14 10° SSW 05:37:07 34° W 05:41:56 10° NNW
CZ-4B R/B 3.4 05:34:21 10° SE 05:37:11 27° ENE 05:39:59 10° N
Cosmos 1680 Rocket 4.4 05:35:35 10° N 05:40:44 49° ENE 05:45:49 10° SE
Cosmos 1408 Rocket 4.5 05:37:49 10° SW 05:41:22 25° WNW 05:44:57 10° NNW
Cosmos 158 Rocket 4.1 05:36:53 11° NNW 05:41:45 57° WSW 05:46:55 10° S
CZ-4B R/B 2.5 05:40:34 10° N 05:44:09 80° WNW 05:47:47 10° SSW
Meteor 1-25 Rocket 4.1 05:39:36 10° SSW 05:45:12 74° W 05:50:47 10° N
FALCON 9 DEB 4.3 05:44:13 16° NNW 05:45:45 25° NNE 05:48:13 10° E
H-2A R/B 3.9 05:43:09 10° NNE 05:47:34 32° E 05:52:00 10° SSE
SMAP 3.6 05:43:19 10° NNE 05:47:57 63° ESE 05:52:33 10° S
Lacrosse 5 2.8 05:44:01 10° SSW 05:48:57 53° SE 05:53:55 10° NE
Meteor 1-31 Rocket 3.9 05:47:10 10° NNW 05:50:17 23° WNW 05:53:23 10° WSW
Cosmos 1898 Rocket 4.3 05:45:53 10° S 05:51:06 58° ESE 05:56:19 10° NNE
USA 32 4.1 05:46:35 10° NNW 05:51:44 58° W 05:56:52 10° SSW
Envisat 4.0 05:47:54 10° N 05:51:58 25° WNW 05:56:01 10° WSW
Cosmos 1743 Rocket 4.1 05:49:34 10° SW 05:53:33 34° WNW 05:57:31 10° N
SJ 16-02 2.4 05:52:36 10° WSW 05:56:06 23° WNW 05:59:37 10° N
Cosmos 923 Rocket 4.1 05:51:01 10° NNW 05:56:24 87° ENE 06:01:45 10° SSE
OPS 6432 4.3 05:55:13 15° NW 05:57:38 67° SW 06:01:17 10° SSE
CZ-2C R/B 3.0 05:53:10 10° N 05:58:03 59° WNW 06:03:09 10° SSW
Cosmos 1656 3.7 05:53:32 10° SSW 05:58:57 85° ESE 06:04:26 10° NNE
CZ-2D R/B 4.3 05:57:06 10° NNE 06:00:48 49° E 06:04:28 10° S
USA 215 3.3 05:54:32 10° SE 06:01:05 85° SW 06:07:39 10° NW
SL-4 R/B 1.6 06:00:35 10° WSW 06:04:06 67° NNW 06:07:51 10° NE
Cosmos 1666 Rocket 3.7 06:00:06 10° S 06:04:34 84° E 06:09:05 10° N
Lacrosse 4 Rocket 2.8 06:01:04 10° NNW 06:05:17 39° NE 06:09:29 10° ESE
NOAA 6 4.1 06:00:52 10° NNE 06:06:00 84° ESE 06:11:08 10° SSW
EO 1 Delta rocket 4.2 06:00:11 10° N 06:06:12 87° W 06:11:06 10° SSW
Cosmos 2227 Rocket 2.5 06:00:56 10° NNW 06:06:35 69° ENE 06:12:12 10° SSE
Cosmos 1939 Rocket 2.8 06:04:38 10° N 06:08:29 58° WNW 06:12:15 10° SSW
Cosmos 2228 Rocket 3.8 06:07:32 10° NNW 06:11:38 35° W 06:15:46 10° SSW
Okean 1 3.6 06:09:11 10° NNW 06:12:58 44° W 06:16:43 10° SSW
Meteor 2-4 Rocket 3.9 06:08:57 10° N 06:14:53 86° ENE 06:20:41 10° S
FengYun 1-2 T 4.2 06:10:46 10° N 06:16:13 66° WNW 06:21:38 10° SSW
Sich 1 3.5 06:14:49 10° SW 06:18:46 36° WNW 06:22:44 10° N
Meteor 1-18 Rocket 4.3 06:15:50 10° NNW 06:21:35 62° W 06:27:10 10° S
COSMOS 2487 4.4 06:21:36 10° WNW 06:22:52 12° W 06:24:08 10° WSW
Cosmos 990 Rocket 4.1 06:17:47 10° SW 06:22:56 56° WNW 06:28:07 10° NNE
Cosmos 1937 Rocket 3.7 06:18:29 10° SSW 06:23:42 81° ESE 06:29:01 10° NNE
BREEZE M DEB (TANK) 1.7 06:21:21 10° WNW 06:24:02 64° NNE 06:26:02 10° ESE
Cosmos 2112 Rocket 4.1 06:19:10 10° NNW 06:24:30 84° WSW 06:29:46 10° SSE
Cosmos 1500 4.0 06:22:15 10° SW 06:25:38 30° WNW 06:29:00 10° NNW
CZ-4B DEB 4.3 06:21:52 10° NNE 06:27:21 90° WNW 06:32:48 10° SSW
